Overview Statistics Trail Chart Weather Telemetry Raw packets
 

This is the latest recevied weather packets stored in our database for station/object N5CSU. If no packets are shown the sender has not sent any weather packets the latest 10 day(s).

<< 23 24 25 26 27 28 29 >>
Time Temp. Humidity Pressure Rain* Wind** Luminosity Snow
1788460740 30.56° C 71% 1013.6 hPa 0 mm - 45 W/m² -
1788460435 30° C 72% 1013.6 hPa 0 mm - 54 W/m² -
1788460135 30° C 73% 1013.8 hPa 0 mm - 78 W/m² -
1788459834 29.44° C 74% 1013.9 hPa 0 mm - 46 W/m² -
1788459528 29.44° C 73% 1013.9 hPa 0 mm - 38 W/m² -
1788459224 29.44° C 74% 1014 hPa 0 mm - 53 W/m² -
1788458918 29.44° C 74% 1014 hPa 0 mm - 42 W/m² -
1788458617 28.89° C 74% 1014.1 hPa 0 mm - 46 W/m² -
1788458311 28.89° C 75% 1014.2 hPa 0 mm - 37 W/m² -
1788458010 28.89° C 76% 1014.3 hPa 0 mm - 45 W/m² -
1788457705 28.89° C 76% 1014.3 hPa 0 mm - 60 W/m² -
1788457401 28.89° C 76% 1014.2 hPa 0 mm - 38 W/m² -
1788457095 28.33° C 77% 1014.3 hPa 0 mm - 56 W/m² -
1788456791 28.33° C 77% 1014.5 hPa 0 mm - 35 W/m² -
1788456487 28.33° C 78% 1014.6 hPa 0 mm - 28 W/m² -
1788456181 27.78° C 80% 1014.6 hPa 0 mm - 20 W/m² -
1788455876 28.33° C 80% 1014.9 hPa 0 mm - 10 W/m² -
1788455572 28.33° C 80% 1014.7 hPa 0 mm - 15 W/m² -
1788455270 28.33° C 80% 1014.6 hPa 0 mm - 12 W/m² -
1788454966 28.33° C 79% 1014.8 hPa 0 mm - 16 W/m² -
1788454664 28.33° C 79% 1014.3 hPa 0 mm - 17 W/m² -
1788454359 28.33° C 79% 1014.4 hPa 0 mm - 19 W/m² -
1788454059 28.33° C 80% 1014.4 hPa 0 mm - 12 W/m² -
1788453755 28.33° C 80% 1014.5 hPa 0 mm - 12 W/m² -
1788453454 28.89° C 80% 1014.4 hPa 0 mm - 13 W/m² -

* Rain latest hour (hover to see other rain measurements)
** Current wind speed in m/s (hover to see current wind gust speed)